Location: Newark
(47.5833°N, 8.1500°E)
Time: 08:06:09
(UTC+00:00)

Vanguard 1 - Pass Details

Date: 28 October 2020
Orbit: 650 x 3833 km, 34.2° (Epoch: 29 November)

Event Time Altitude Azimuth Distance (km) Brightness Sun altitude
Rises 09:19:45 0° 188° (S) 6,956 15.2 24.2°
Reaches altitude 10° 09:25:54 10° 175° (S) 6,360 15.5 24.7°
Maximum altitude 09:40:09 22° 133° (SE) 5,876 15.7 25.8°
Drops below altitude 10° 09:55:04 10° 93° (E) 6,770 14.7 26.8°
Sets 10:01:45 0° 81° (E) 7,511 14.7 27.1°
